Weather History for KSLB - March, 2013

Change the Weather History Date:

Sunday, March 17, 2013

  Actual Average Record
Temperature  
Mean Temperature 24 °F -  
Max Temperature 33 °F 40 °F 80 °F (2012)
Min Temperature 14 °F 25 °F 14 °F (2013)
Degree Days  
Heating Degree Days 42    
Moisture  
Dew Point 20 °F    
Average Humidity 84    
Maximum Humidity 93    
Minimum Humidity 79    
Precipitation  
Precipitation 0.00 in - - ()
Sea Level Pressure  
Sea Level Pressure 29.97 in    
Wind  
Wind Speed 15 mph (ESE)    
Max Wind Speed 22 mph    
Max Gust Speed 26 mph    
Visibility 10 miles    
Events      
Averages and records for this station are not official NWS values.
T = Trace of Precipitation, MM = Missing Value Source: NWS Daily Summary

Daily Weather History Graph

Daily Weather History Graph

Search for Another Location

Airport or City:

Trip Planner

Search our weather history database for the weather conditions in past years. The results will help you decide how hot, cold, wet, or windy it might be!

Date:

Astronomy

Mar. 17, 2013 Rise Set
Actual Time 7:28 AM CDT 7:30 PM CDT
Civil Twilight 7:00 AM CDT 7:58 PM CDT
Nautical Twilight 6:28 AM CDT 8:31 PM CDT
Astronomical Twilight 5:54 AM CDT 9:04 PM CDT
Moon 10:35 AM CDT (3/17) 12:45 AM CDT (3/17)
Length of Visible Light 12h 57m
Length of Day
12h 01m
Waxing Crescent, 31% of the Moon is Illuminated
Mar 17
Waxing Crescent
Mar 19
First Quarter
Mar 27
Full
Apr 2
Last Quarter
Apr 10
New

Hourly Weather History & Observations

Time (CDT) Temp. Windchill Dew Point Humidity Pressure Visibility Wind Dir Wind Speed Gust Speed Precip Events Conditions
12:15 AM 21.2 °F 10.9 °F 15.8 °F 80% 30.17 in 10.0 mi NNE 9.2 mph - N/A   Overcast
12:35 AM 21.2 °F 10.1 °F 17.6 °F 86% 30.17 in 10.0 mi NNE 10.4 mph - N/A   Mostly Cloudy
12:55 AM 21.2 °F 8.3 °F 15.8 °F 80% 30.17 in 10.0 mi NNE 13.8 mph - N/A   Mostly Cloudy
1:15 AM 19.4 °F 7.2 °F 15.8 °F 86% 30.17 in 10.0 mi NNE 11.5 mph - N/A   Overcast
1:35 AM 19.4 °F 6.6 °F 15.8 °F 86% 30.16 in 10.0 mi NNE 12.7 mph - N/A   Overcast
1:55 AM 19.4 °F 6.0 °F 15.8 °F 86% 30.14 in 10.0 mi NE 13.8 mph - N/A   Overcast
2:15 AM 19.4 °F 6.0 °F 15.8 °F 86% 30.14 in 10.0 mi NE 13.8 mph - N/A   Overcast
2:35 AM 19.4 °F 5.5 °F 15.8 °F 86% 30.13 in 10.0 mi NE 15.0 mph - N/A   Overcast
2:55 AM 17.6 °F 5.0 °F 14.0 °F 86% 30.12 in 10.0 mi NE 11.5 mph - N/A   Overcast
3:15 AM 17.6 °F 4.3 °F 14.0 °F 86% 30.11 in 10.0 mi NE 12.7 mph - N/A   Scattered Clouds
3:35 AM 17.6 °F 4.3 °F 14.0 °F 86% 30.11 in 10.0 mi NE 12.7 mph - N/A   Scattered Clouds
3:55 AM 17.6 °F 2.7 °F 14.0 °F 86% 30.10 in 10.0 mi ENE 16.1 mph - N/A   Overcast
4:15 AM 17.6 °F 3.2 °F 12.2 °F 79% 30.10 in 10.0 mi NE 15.0 mph - N/A   Mostly Cloudy
4:35 AM 17.6 °F 2.7 °F 12.2 °F 79% 30.09 in 10.0 mi NE 16.1 mph - N/A   Partly Cloudy
4:55 AM 15.8 °F -0.2 °F 12.2 °F 86% 30.08 in 10.0 mi NE 17.3 mph - N/A   Clear
5:15 AM 15.8 °F -0.2 °F 12.2 °F 86% 30.08 in 10.0 mi NE 17.3 mph - N/A   Clear
5:35 AM 15.8 °F 1.4 °F 12.2 °F 86% 30.08 in 10.0 mi NE 13.8 mph - N/A   Partly Cloudy
5:55 AM 15.8 °F 0.3 °F 12.2 °F 86% 30.08 in 10.0 mi NE 16.1 mph - N/A   Partly Cloudy
6:15 AM 15.8 °F 0.3 °F 12.2 °F 86% 30.09 in 10.0 mi ENE 16.1 mph - N/A   Clear
6:35 AM 14.0 °F -3.0 °F 12.2 °F 93% 30.08 in 10.0 mi ENE 18.4 mph - N/A   Scattered Clouds
6:55 AM 14.0 °F -2.0 °F 10.4 °F 86% 30.09 in 10.0 mi ENE 16.1 mph 23.0 mph N/A   Partly Cloudy
7:15 AM 14.0 °F -3.9 °F 10.4 °F 86% 30.09 in 10.0 mi ENE 20.7 mph - N/A   Mostly Cloudy
7:35 AM 14.0 °F -2.5 °F 10.4 °F 86% 30.08 in 10.0 mi ENE 17.3 mph 23.0 mph N/A   Scattered Clouds
7:55 AM 14.0 °F -3.4 °F 10.4 °F 86% 30.09 in 10.0 mi East 19.6 mph - N/A   Clear
8:15 AM 15.8 °F -0.6 °F 12.2 °F 86% 30.09 in 10.0 mi East 18.4 mph - N/A   Scattered Clouds
8:35 AM 15.8 °F -0.6 °F 12.2 °F 86% 30.08 in 10.0 mi East 18.4 mph - N/A   Mostly Cloudy
8:55 AM 17.6 °F 0.9 °F 12.2 °F 79% 30.08 in 10.0 mi East 20.7 mph - N/A   Overcast
9:15 AM 17.6 °F 1.7 °F 14.0 °F 86% 30.08 in 10.0 mi East 18.4 mph - N/A   Mostly Cloudy
9:35 AM 17.6 °F 0.9 °F 14.0 °F 86% 30.07 in 10.0 mi East 20.7 mph - N/A   Partly Cloudy
9:55 AM 19.4 °F 3.6 °F 14.0 °F 80% 30.08 in 10.0 mi ESE 19.6 mph - N/A   Mostly Cloudy
10:15 AM 19.4 °F 4.1 °F 15.8 °F 86% 30.07 in 10.0 mi SE 18.4 mph - N/A   Overcast
10:35 AM 21.2 °F 5.6 °F 15.8 °F 80% 30.06 in 10.0 mi SE 20.7 mph - N/A   Mostly Cloudy
10:55 AM 21.2 °F 6.0 °F 17.6 °F 86% 30.05 in 10.0 mi ESE 19.6 mph - N/A   Mostly Cloudy
11:15 AM 23.0 °F 9.2 °F 17.6 °F 80% 30.05 in 10.0 mi SE 17.3 mph - N/A   Mostly Cloudy
11:35 AM 23.0 °F 8.3 °F 17.6 °F 80% 30.03 in 10.0 mi SE 19.6 mph - N/A   Scattered Clouds
11:55 AM 23.0 °F 9.2 °F 17.6 °F 80% 30.01 in 10.0 mi SE 17.3 mph 24.2 mph N/A   Mostly Cloudy
12:15 PM 24.8 °F 11.9 °F 19.4 °F 80% 30.00 in 10.0 mi SE 16.1 mph 23.0 mph N/A   Overcast
12:35 PM 24.8 °F 11.1 °F 19.4 °F 80% 29.98 in 10.0 mi SE 18.4 mph - N/A   Overcast
12:55 PM 26.6 °F 14.3 °F 21.2 °F 80% 29.97 in 10.0 mi SE 16.1 mph - N/A   Scattered Clouds
1:15 PM 26.6 °F 13.8 °F 21.2 °F 80% 29.96 in 10.0 mi SE 17.3 mph - N/A   Mostly Cloudy
1:35 PM 26.6 °F 14.3 °F 21.2 °F 80% 29.94 in 10.0 mi SE 16.1 mph - N/A   Mostly Cloudy
1:55 PM 28.4 °F 16.2 °F 23.0 °F 80% 29.93 in 10.0 mi SE 17.3 mph - N/A   Mostly Cloudy
2:15 PM 28.4 °F 16.2 °F 24.8 °F 86% 29.92 in 10.0 mi SE 17.3 mph - N/A   Mostly Cloudy
2:35 PM 30.2 °F 17.4 °F 24.8 °F 80% 29.91 in 10.0 mi SE 20.7 mph - N/A   Mostly Cloudy
2:55 PM 30.2 °F 18.5 °F 24.8 °F 80% 29.90 in 10.0 mi SSE 17.3 mph 23.0 mph N/A   Mostly Cloudy
3:15 PM 30.2 °F 18.5 °F 24.8 °F 80% 29.89 in 10.0 mi SE 17.3 mph - N/A   Mostly Cloudy
3:35 PM 32.0 °F 21.2 °F 26.6 °F 80% 29.87 in 10.0 mi SE 16.1 mph - N/A   Mostly Cloudy
3:55 PM 32.0 °F 21.6 °F 26.6 °F 80% 29.85 in 10.0 mi SE 15.0 mph - N/A   Mostly Cloudy
4:15 PM 32.0 °F 20.8 °F 26.6 °F 80% 29.84 in 10.0 mi SE 17.3 mph 24.2 mph N/A   Partly Cloudy
4:35 PM 32.0 °F 21.2 °F 26.6 °F 80% 29.83 in 10.0 mi SE 16.1 mph 21.9 mph N/A   Scattered Clouds
4:55 PM 33.8 °F 22.8 °F 28.4 °F 81% 29.82 in 10.0 mi SE 18.4 mph - N/A   Scattered Clouds
5:15 PM 33.8 °F 22.2 °F 28.4 °F 81% 29.81 in 10.0 mi SE 20.7 mph - N/A   Scattered Clouds
5:35 PM 33.8 °F 22.2 °F 28.4 °F 81% 29.80 in 10.0 mi ESE 20.7 mph - N/A   Scattered Clouds
5:55 PM 33.8 °F 22.5 °F 28.4 °F 81% 29.80 in 10.0 mi SE 19.6 mph - N/A   Scattered Clouds
6:15 PM 33.8 °F 22.8 °F 28.4 °F 81% 29.79 in 10.0 mi SE 18.4 mph - N/A   Scattered Clouds
6:35 PM 32.0 °F 20.5 °F 28.4 °F 87% 29.78 in 10.0 mi SE 18.4 mph 26.5 mph N/A   Partly Cloudy
6:55 PM 32.0 °F 19.5 °F 28.4 °F 87% 29.77 in 10.0 mi ESE 21.9 mph - N/A   Clear
7:15 PM 32.0 °F 19.5 °F 28.4 °F 87% 29.77 in 10.0 mi ESE 21.9 mph - N/A   Partly Cloudy
7:35 PM 32.0 °F 20.5 °F 28.4 °F 87% 29.78 in 10.0 mi SE 18.4 mph 26.5 mph N/A   Mostly Cloudy
7:55 PM 32.0 °F 20.8 °F 30.2 °F 93% 29.79 in 10.0 mi SE 17.3 mph - N/A   Overcast
8:15 PM 32.0 °F 21.2 °F 28.4 °F 87% 29.81 in 10.0 mi SE 16.1 mph - N/A   Overcast
8:35 PM 32.0 °F 20.8 °F 28.4 °F 87% 29.80 in 10.0 mi SE 17.3 mph - N/A   Overcast
8:55 PM 32.0 °F 20.5 °F 28.4 °F 87% 29.79 in 10.0 mi SE 18.4 mph - N/A   Overcast
9:15 PM 32.0 °F 20.5 °F 28.4 °F 87% 29.78 in 10.0 mi SE 18.4 mph - N/A   Overcast
9:35 PM 32.0 °F 20.8 °F 28.4 °F 87% 29.79 in 10.0 mi SE 17.3 mph - N/A   Overcast
9:55 PM 32.0 °F 22.1 °F 28.4 °F 87% 29.80 in 10.0 mi SE 13.8 mph 20.7 mph N/A   Overcast
10:15 PM 32.0 °F 22.1 °F 28.4 °F 87% 29.80 in 10.0 mi SE 13.8 mph 20.7 mph N/A   Overcast
10:35 PM 32.0 °F 21.2 °F 28.4 °F 87% 29.80 in 10.0 mi SE 16.1 mph 21.9 mph N/A   Overcast
10:55 PM 32.0 °F 20.8 °F 30.2 °F 93% 29.79 in 4.0 mi SE 17.3 mph - N/A   Overcast
11:15 PM 32.0 °F 21.6 °F 30.2 °F 93% 29.79 in 4.0 mi SE 15.0 mph - N/A   Overcast
11:35 PM 32.0 °F 20.8 °F 30.2 °F 93% 29.78 in 3.0 mi SE 17.3 mph - N/A   Overcast
11:55 PM - - - N/A% 29.77 in 3.0 mi SSE 16.1 mph - N/A   Overcast